Year,Month,Day,Hour,Minute,Value (Times are PST for temperature in C)
2020,06,26,05,02,13.60
2020,06,26,05,03,13.60
2020,06,26,05,04,13.60
2020,06,26,05,05,13.60
2020,06,26,05,06,13.60
2020,06,26,05,07,13.60
2020,06,26,05,08,13.60
2020,06,26,05,09,13.60
2020,06,26,05,10,13.60
2020,06,26,05,11,13.60
2020,06,26,05,12,13.60
2020,06,26,05,13,13.60
2020,06,26,05,14,13.60
2020,06,26,05,15,13.60
2020,06,26,05,16,13.60
2020,06,26,05,17,13.60
2020,06,26,05,18,13.60
2020,06,26,05,19,13.60
2020,06,26,05,20,13.60
2020,06,26,05,21,13.60
2020,06,26,05,22,13.60
2020,06,26,05,23,13.60
2020,06,26,05,24,13.70
2020,06,26,05,25,13.60
2020,06,26,05,26,13.70
2020,06,26,05,27,13.60
2020,06,26,05,28,13.60
2020,06,26,05,29,13.60
2020,06,26,05,30,13.60
2020,06,26,05,31,13.60
2020,06,26,05,32,13.60
2020,06,26,05,33,13.60
2020,06,26,05,34,13.60
2020,06,26,05,35,13.60
2020,06,26,05,36,13.60
2020,06,26,05,37,13.60
2020,06,26,05,38,13.60
2020,06,26,05,39,13.60
2020,06,26,05,40,13.60
2020,06,26,05,41,13.50
2020,06,26,05,42,13.50
2020,06,26,05,43,13.50
2020,06,26,05,44,13.50
2020,06,26,05,45,13.50
2020,06,26,05,46,13.50
2020,06,26,05,47,13.60
2020,06,26,05,48,13.60
2020,06,26,05,49,13.60
2020,06,26,05,50,13.60
2020,06,26,05,51,13.60
2020,06,26,05,52,13.60
2020,06,26,05,53,13.60
2020,06,26,05,54,13.60
2020,06,26,05,55,13.60
2020,06,26,05,56,13.60
2020,06,26,05,57,13.60
2020,06,26,05,58,13.60
2020,06,26,05,59,13.60
2020,06,26,06,00,13.60
2020,06,26,06,01,13.60
2020,06,26,06,02,13.60
2020,06,26,06,03,13.60
2020,06,26,06,04,13.60
2020,06,26,06,05,13.60
2020,06,26,06,06,13.60
2020,06,26,06,07,13.60
2020,06,26,06,08,13.60
2020,06,26,06,09,13.60
2020,06,26,06,10,13.60
2020,06,26,06,11,13.60
2020,06,26,06,12,13.60
2020,06,26,06,13,13.60
2020,06,26,06,14,13.70
2020,06,26,06,15,13.70
2020,06,26,06,16,13.70
2020,06,26,06,17,13.70
2020,06,26,06,18,13.70
2020,06,26,06,19,13.70
2020,06,26,06,20,13.80
2020,06,26,06,21,13.80
2020,06,26,06,22,13.80
2020,06,26,06,23,13.80
2020,06,26,06,24,13.80
2020,06,26,06,25,13.80
2020,06,26,06,26,13.80
2020,06,26,06,27,13.80
2020,06,26,06,28,13.80
2020,06,26,06,29,13.80
2020,06,26,06,30,13.80
2020,06,26,06,31,13.80
2020,06,26,06,32,13.80
2020,06,26,06,33,13.80
2020,06,26,06,34,13.90
2020,06,26,06,35,13.90
2020,06,26,06,36,13.90
2020,06,26,06,37,13.90
2020,06,26,06,38,13.90
2020,06,26,06,39,13.90
2020,06,26,06,40,13.90
2020,06,26,06,41,14.00
2020,06,26,06,42,14.00
2020,06,26,06,43,14.00
2020,06,26,06,44,14.00
2020,06,26,06,45,14.00
2020,06,26,06,46,14.10
2020,06,26,06,47,14.10
2020,06,26,06,48,14.10
2020,06,26,06,49,14.10
2020,06,26,06,50,14.10
2020,06,26,06,51,14.20
2020,06,26,06,52,14.20
2020,06,26,06,53,14.20
2020,06,26,06,54,14.20
2020,06,26,06,55,14.30
2020,06,26,06,56,14.30
2020,06,26,06,57,14.30
2020,06,26,06,58,14.30
2020,06,26,06,59,14.30
2020,06,26,07,00,14.30
2020,06,26,07,01,14.40
2020,06,26,07,02,14.40
2020,06,26,07,03,14.40
2020,06,26,07,04,14.50
2020,06,26,07,05,14.50
2020,06,26,07,06,14.60
2020,06,26,07,07,14.60
2020,06,26,07,08,14.70
2020,06,26,07,09,14.70
2020,06,26,07,10,14.80
2020,06,26,07,11,14.80
2020,06,26,07,12,14.90
2020,06,26,07,13,15.00
2020,06,26,07,14,15.10
2020,06,26,07,15,15.10
2020,06,26,07,16,15.20
2020,06,26,07,17,15.30
2020,06,26,07,18,15.30
2020,06,26,07,19,15.40
2020,06,26,07,20,15.50
2020,06,26,07,21,15.60
2020,06,26,07,22,15.60
2020,06,26,07,23,15.60
2020,06,26,07,24,15.70
2020,06,26,07,25,15.70
2020,06,26,07,26,15.70
2020,06,26,07,27,15.70
2020,06,26,07,28,15.60
2020,06,26,07,29,15.60
2020,06,26,07,30,15.50
2020,06,26,07,31,15.50
2020,06,26,07,32,15.40
2020,06,26,07,33,15.40
2020,06,26,07,34,15.40
2020,06,26,07,35,15.40
2020,06,26,07,36,15.40
2020,06,26,07,37,15.40
2020,06,26,07,38,15.40
2020,06,26,07,39,15.40
2020,06,26,07,40,15.40
2020,06,26,07,41,15.40
2020,06,26,07,42,15.40
2020,06,26,07,43,15.50
2020,06,26,07,44,15.50
2020,06,26,07,45,15.50
2020,06,26,07,46,15.50
2020,06,26,07,47,15.50
2020,06,26,07,48,15.40
2020,06,26,07,49,15.40
2020,06,26,07,50,15.40
2020,06,26,07,51,15.40
2020,06,26,07,52,15.40
2020,06,26,07,53,15.40
2020,06,26,07,54,15.40
2020,06,26,07,55,15.40
2020,06,26,07,56,15.50
2020,06,26,07,57,15.50
2020,06,26,07,58,15.60
2020,06,26,07,59,15.60
2020,06,26,08,00,15.60
2020,06,26,08,01,15.70
2020,06,26,08,02,15.80
2020,06,26,08,03,15.80
2020,06,26,08,04,15.90
2020,06,26,08,05,15.90
2020,06,26,08,06,16.00
2020,06,26,08,07,16.00
2020,06,26,08,08,16.10
2020,06,26,08,09,16.10
2020,06,26,08,10,16.20
2020,06,26,08,11,16.20
2020,06,26,08,12,16.30
2020,06,26,08,13,16.40
2020,06,26,08,14,16.50
2020,06,26,08,15,16.50
2020,06,26,08,16,16.60
2020,06,26,08,17,16.70
2020,06,26,08,18,16.80
2020,06,26,08,19,16.80
2020,06,26,08,20,16.90
2020,06,26,08,21,16.90
2020,06,26,08,22,16.90
2020,06,26,08,23,16.90
2020,06,26,08,24,16.90
2020,06,26,08,25,16.90
2020,06,26,08,26,17.00
2020,06,26,08,27,17.00
2020,06,26,08,28,17.00
2020,06,26,08,29,17.00
2020,06,26,08,30,17.00
2020,06,26,08,31,16.90
2020,06,26,08,32,16.90
2020,06,26,08,33,16.90
2020,06,26,08,34,16.90
2020,06,26,08,35,16.90
2020,06,26,08,36,16.90
2020,06,26,08,37,16.90
2020,06,26,08,38,16.90
2020,06,26,08,39,16.90
2020,06,26,08,40,16.90
2020,06,26,08,41,16.90
2020,06,26,08,42,16.90
2020,06,26,08,43,17.00
2020,06,26,08,44,17.00
2020,06,26,08,45,17.00
2020,06,26,08,46,17.10
2020,06,26,08,47,17.10
2020,06,26,08,48,17.00
2020,06,26,08,49,17.00
2020,06,26,08,50,16.90
2020,06,26,08,51,16.90
2020,06,26,08,52,16.90
2020,06,26,08,53,16.80
2020,06,26,08,54,16.80
2020,06,26,08,55,16.70
2020,06,26,08,56,16.70
2020,06,26,08,57,16.60
2020,06,26,08,58,16.50
2020,06,26,08,59,16.50
2020,06,26,09,00,16.40
2020,06,26,09,01,16.40
2020,06,26,09,02,16.40
2020,06,26,09,03,16.30
2020,06,26,09,04,16.30
2020,06,26,09,05,16.20
2020,06,26,09,06,16.20
2020,06,26,09,07,16.20
2020,06,26,09,08,16.20
2020,06,26,09,09,16.30
2020,06,26,09,10,16.30
2020,06,26,09,11,16.40
2020,06,26,09,12,16.50
2020,06,26,09,13,16.50
2020,06,26,09,14,16.60
2020,06,26,09,15,16.70
2020,06,26,09,16,16.70
2020,06,26,09,17,16.70
2020,06,26,09,18,16.80
2020,06,26,09,19,16.80
2020,06,26,09,20,16.80
2020,06,26,09,21,16.80
2020,06,26,09,22,16.90
2020,06,26,09,23,16.90
2020,06,26,09,24,16.90
2020,06,26,09,25,16.90
2020,06,26,09,26,16.90
2020,06,26,09,27,17.00
2020,06,26,09,28,17.00
2020,06,26,09,29,17.00
2020,06,26,09,30,17.10
2020,06,26,09,31,17.10
2020,06,26,09,32,17.10
2020,06,26,09,33,17.10
2020,06,26,09,34,17.10
2020,06,26,09,35,17.10
2020,06,26,09,36,17.10
2020,06,26,09,37,17.20
2020,06,26,09,38,17.20
2020,06,26,09,39,17.20
2020,06,26,09,40,17.30
2020,06,26,09,41,17.30
2020,06,26,09,42,17.30
2020,06,26,09,43,17.40
2020,06,26,09,44,17.50
2020,06,26,09,45,17.50
2020,06,26,09,46,17.60
2020,06,26,09,47,17.60
2020,06,26,09,48,17.70
2020,06,26,09,49,17.70
2020,06,26,09,50,17.80
2020,06,26,09,51,17.80
2020,06,26,09,52,17.90
2020,06,26,09,53,18.00
2020,06,26,09,54,18.10
2020,06,26,09,55,18.20
2020,06,26,09,56,18.20
2020,06,26,09,57,18.30
2020,06,26,09,58,18.40
2020,06,26,09,59,18.50
2020,06,26,10,00,18.50
2020,06,26,10,01,18.60
2020,06,26,10,02,18.60
2020,06,26,10,03,18.70
2020,06,26,10,04,18.70
2020,06,26,10,05,18.80
2020,06,26,10,06,18.80
2020,06,26,10,07,18.80
2020,06,26,10,08,18.90
2020,06,26,10,09,18.90
2020,06,26,10,10,18.90
2020,06,26,10,11,19.00
2020,06,26,10,12,19.00
2020,06,26,10,13,19.00
2020,06,26,10,14,19.10
2020,06,26,10,15,19.10
2020,06,26,10,16,19.20
2020,06,26,10,17,19.20
2020,06,26,10,18,19.20
2020,06,26,10,19,19.30
2020,06,26,10,20,19.30
2020,06,26,10,21,19.30
2020,06,26,10,22,19.40
2020,06,26,10,23,19.40
2020,06,26,10,24,19.50
2020,06,26,10,25,19.50
2020,06,26,10,26,19.60
2020,06,26,10,27,19.60
2020,06,26,10,28,19.60
2020,06,26,10,29,19.70
2020,06,26,10,30,19.70
2020,06,26,10,31,19.70
2020,06,26,10,32,19.70
2020,06,26,10,33,19.80
2020,06,26,10,34,19.80
2020,06,26,10,35,19.90
2020,06,26,10,36,20.00
2020,06,26,10,37,20.10
2020,06,26,10,38,20.10
2020,06,26,10,39,20.20
2020,06,26,10,40,20.20
2020,06,26,10,41,20.30
2020,06,26,10,42,20.30
2020,06,26,10,43,20.40
2020,06,26,10,44,20.40
2020,06,26,10,45,20.50
2020,06,26,10,46,20.50
2020,06,26,10,47,20.60
2020,06,26,10,48,20.60
2020,06,26,10,49,20.60
2020,06,26,10,50,20.70
2020,06,26,10,51,20.70
2020,06,26,10,52,20.70
2020,06,26,10,53,20.70
2020,06,26,10,54,20.60
2020,06,26,10,55,20.60
2020,06,26,10,56,20.70
2020,06,26,10,57,20.60
2020,06,26,10,58,20.60
2020,06,26,10,59,20.60
2020,06,26,11,00,20.60
2020,06,26,11,01,20.70
2020,06,26,11,02,20.70
2020,06,26,11,03,20.70
2020,06,26,11,04,20.70
2020,06,26,11,05,20.70
2020,06,26,11,06,20.70
2020,06,26,11,07,20.70
2020,06,26,11,08,20.80
2020,06,26,11,09,20.80
2020,06,26,11,10,20.70
2020,06,26,11,11,20.70
2020,06,26,11,12,20.70
2020,06,26,11,13,20.70
2020,06,26,11,14,20.70
2020,06,26,11,15,20.70
2020,06,26,11,16,20.80
2020,06,26,11,17,20.80
2020,06,26,11,18,20.80
2020,06,26,11,19,20.80
2020,06,26,11,20,20.80
2020,06,26,11,21,20.80
2020,06,26,11,22,20.80
2020,06,26,11,23,20.80
2020,06,26,11,24,20.70
2020,06,26,11,25,20.70
2020,06,26,11,26,20.60
2020,06,26,11,27,20.50
2020,06,26,11,28,20.50
2020,06,26,11,29,20.40
2020,06,26,11,30,20.40
2020,06,26,11,31,20.30
2020,06,26,11,32,20.30
2020,06,26,11,33,20.30
2020,06,26,11,34,20.30
2020,06,26,11,35,20.30
2020,06,26,11,36,20.30
2020,06,26,11,37,20.30
2020,06,26,11,38,20.40
2020,06,26,11,39,20.40
2020,06,26,11,40,20.40
2020,06,26,11,41,20.40
2020,06,26,11,42,20.40
2020,06,26,11,43,20.40
2020,06,26,11,44,20.40
2020,06,26,11,45,20.40
2020,06,26,11,46,20.40
2020,06,26,11,47,20.40
2020,06,26,11,48,20.40
2020,06,26,11,49,20.40
2020,06,26,11,50,20.40
2020,06,26,11,51,20.40
2020,06,26,11,52,20.40
2020,06,26,11,53,20.40
2020,06,26,11,54,20.40
2020,06,26,11,55,20.40
2020,06,26,11,56,20.40
2020,06,26,11,57,20.30
2020,06,26,11,58,20.30
2020,06,26,11,59,20.30
2020,06,26,12,00,20.30
2020,06,26,12,01,20.30
2020,06,26,12,02,20.30
2020,06,26,12,03,20.30
2020,06,26,12,04,20.30
2020,06,26,12,05,20.40
2020,06,26,12,06,20.50
2020,06,26,12,07,20.50
2020,06,26,12,08,20.60
2020,06,26,12,09,20.60
2020,06,26,12,10,20.60
2020,06,26,12,11,20.70
2020,06,26,12,12,20.70
2020,06,26,12,13,20.70
2020,06,26,12,14,20.70
2020,06,26,12,15,20.70
2020,06,26,12,16,20.70
2020,06,26,12,17,20.80
2020,06,26,12,18,20.80
2020,06,26,12,19,20.80
2020,06,26,12,20,20.80
2020,06,26,12,21,20.80
2020,06,26,12,22,20.80
2020,06,26,12,23,20.70
2020,06,26,12,24,20.70
2020,06,26,12,25,20.70
2020,06,26,12,26,20.70
2020,06,26,12,27,20.70
2020,06,26,12,28,20.70
2020,06,26,12,29,20.70
2020,06,26,12,30,20.70
2020,06,26,12,31,20.70
2020,06,26,12,32,20.70
2020,06,26,12,33,20.70
2020,06,26,12,34,20.70
2020,06,26,12,35,20.70
2020,06,26,14,10,20.50
2020,06,26,14,11,20.50
2020,06,26,14,12,20.50
2020,06,26,14,13,20.50
2020,06,26,14,14,20.50
2020,06,26,14,15,20.50
2020,06,26,14,16,20.50
2020,06,26,14,17,20.50
2020,06,26,14,18,20.50
2020,06,26,14,19,20.60
2020,06,26,14,20,20.60
2020,06,26,14,21,20.60
2020,06,26,14,22,20.60
2020,06,26,14,23,20.50
2020,06,26,14,24,20.40
2020,06,26,14,25,20.40
2020,06,26,14,26,20.40
2020,06,26,14,27,20.40
2020,06,26,14,28,20.40
2020,06,26,14,29,20.40
2020,06,26,14,30,20.30
2020,06,26,14,31,20.30
2020,06,26,14,32,20.30
2020,06,26,14,33,20.30
2020,06,26,14,34,20.30
2020,06,26,14,35,20.10
2020,06,26,14,36,20.10
2020,06,26,14,37,20.10
2020,06,26,14,38,20.00
2020,06,26,14,39,20.00
2020,06,26,14,40,19.90
2020,06,26,14,41,19.80
2020,06,26,14,42,19.80
2020,06,26,14,43,19.80
2020,06,26,14,44,19.70
2020,06,26,14,45,19.70
2020,06,26,14,46,19.60
2020,06,26,14,47,19.60
2020,06,26,14,48,19.60
2020,06,26,14,49,19.60
2020,06,26,14,50,19.60
2020,06,26,14,51,19.60
2020,06,26,14,52,19.50
2020,06,26,14,53,19.50
2020,06,26,14,54,19.50
2020,06,26,14,55,19.50
2020,06,26,14,56,19.50
2020,06,26,14,57,19.50
2020,06,26,14,58,19.50
2020,06,26,14,59,19.50
2020,06,26,15,00,19.50
2020,06,26,15,01,19.50
2020,06,26,15,02,19.50
2020,06,26,15,03,19.50
2020,06,26,15,04,19.50
2020,06,26,15,05,19.50
2020,06,26,17,56,17.70
2020,06,26,17,57,17.60
2020,06,26,17,58,17.60
2020,06,26,17,59,17.60
2020,06,26,18,00,17.60
2020,06,26,18,01,17.60
2020,06,26,18,02,17.50
2020,06,26,18,03,17.50
2020,06,26,18,04,17.50
2020,06,26,18,05,17.40
2020,06,26,18,06,17.40
2020,06,26,18,07,17.40
2020,06,26,18,08,17.40
2020,06,26,18,09,17.40
2020,06,26,18,10,17.40
2020,06,26,18,11,17.40
2020,06,26,18,12,17.30
2020,06,26,18,13,17.30
2020,06,26,18,14,17.30
2020,06,26,18,15,17.30
2020,06,26,18,16,17.30
2020,06,26,18,17,17.30
2020,06,26,18,18,17.30
2020,06,26,18,19,17.30
2020,06,26,18,20,17.30
2020,06,26,18,21,17.30
2020,06,26,18,22,17.30
2020,06,26,18,23,17.30
2020,06,26,18,24,17.30
2020,06,26,18,25,17.20
2020,06,26,18,26,17.20
2020,06,26,18,27,17.30
2020,06,26,18,28,17.30
2020,06,26,18,29,17.30
2020,06,26,18,30,17.30
2020,06,26,18,31,17.40
2020,06,26,18,32,17.50
2020,06,26,18,33,17.50
2020,06,26,18,34,17.60
2020,06,26,18,35,17.60
2020,06,26,18,36,17.70
2020,06,26,18,37,17.70
2020,06,26,18,38,17.80
2020,06,26,18,39,17.80
2020,06,26,18,40,17.80
2020,06,26,18,41,17.90
2020,06,26,18,42,17.90
2020,06,26,18,43,18.00
2020,06,26,18,44,18.00
2020,06,26,18,45,18.00
2020,06,26,18,46,18.00
2020,06,26,18,47,18.00
2020,06,26,18,48,18.10
2020,06,26,18,49,18.10
2020,06,26,18,50,18.10
2020,06,26,18,51,18.10
2020,06,26,18,52,18.10
2020,06,26,18,53,18.00
2020,06,26,18,54,18.00
2020,06,26,18,55,18.00
2020,06,26,18,56,18.00
2020,06,26,18,57,18.00
2020,06,26,18,58,18.00
2020,06,26,18,59,18.00
2020,06,26,19,00,18.00
2020,06,26,19,01,17.90
2020,06,26,19,02,17.90
2020,06,26,19,03,17.90
2020,06,26,19,04,17.90
2020,06,26,19,05,17.80
2020,06,26,19,06,17.80
2020,06,26,19,07,17.80
2020,06,26,19,08,17.70
2020,06,26,19,09,17.70
2020,06,26,19,10,17.70
2020,06,26,19,11,17.70
2020,06,26,19,12,17.70
2020,06,26,19,13,17.70
2020,06,26,19,14,17.70
2020,06,26,19,15,17.70
2020,06,26,19,16,17.70
2020,06,26,19,17,17.70
2020,06,26,19,18,17.70
